Weather History for KGRR - March, 2013

Change the Weather History Date:

Saturday, March 23, 2013

  Actual Average Record
Temperature  
Mean Temperature 31 °F 38 °F  
Max Temperature 37 °F 48 °F 74 °F (1907)
Min Temperature 24 °F 29 °F 4 °F (1983)
Degree Days  
Heating Degree Days 34 27  
Month to date heating degree days 808 711  
Since 1 July heating degree days 5293 5488  
Cooling Degree Days 0 0  
Month to date cooling degree days 0 0  
Year to date cooling degree days 0 0  
Moisture  
Dew Point 21 °F    
Average Humidity 69    
Maximum Humidity 81    
Minimum Humidity 56    
Precipitation  
Precipitation 0.00 in 0.08 in 1.38 in (1897)
Month to date precipitation 0.87 1.69  
Year to date precipitation 7.93 5.57  
Snow  
Snow 0.00 in 0.20 in 8.40 in (1956)
Month to date snowfall 7.5 7.1  
Since 1 July snowfall 65.1 71.9  
Snow Depth 0.00 in    
Sea Level Pressure  
Sea Level Pressure 30.10 in    
Wind  
Wind Speed 4 mph (North)    
Max Wind Speed 9 mph    
Max Gust Speed 12 mph    
Visibility 10 miles    
Events      
T = Trace of Precipitation, MM = Missing Value Source: NWS Daily Summary

Daily Weather History Graph

Daily Weather History Graph

Search for Another Location

Airport or City:

Trip Planner

Search our weather history database for the weather conditions in past years. The results will help you decide how hot, cold, wet, or windy it might be!

Date:

Astronomy

Mar. 23, 2013 Rise Set
Actual Time 7:39 AM EDT 7:58 PM EDT
Civil Twilight 7:11 AM EDT 8:26 PM EDT
Nautical Twilight 6:38 AM EDT 8:59 PM EDT
Astronomical Twilight 6:04 AM EDT 9:34 PM EDT
Moon 4:19 PM EDT (3/23) 5:20 AM EDT (3/23)
Length of Visible Light 13h 15m
Length of Day
12h 18m
Waxing Gibbous, 85% of the Moon is Illuminated
Mar 23
Waxing Gibbous
Mar 27
Full
Apr 3
Last Quarter
Apr 10
New
Apr 18
First Quarter

Hourly Weather History & Observations

Time (EDT) Temp. Windchill Dew Point Humidity Pressure Visibility Wind Dir Wind Speed Gust Speed Precip Events Conditions
12:53 AM 26.1 °F 19.4 °F 19.9 °F 78% 30.08 in 10.0 mi West 5.8 mph - N/A   Clear
1:53 AM 26.1 °F 21.9 °F 19.9 °F 78% 30.07 in 10.0 mi WNW 3.5 mph - N/A   Clear
2:53 AM 26.1 °F 19.4 °F 19.9 °F 78% 30.07 in 10.0 mi WNW 5.8 mph - N/A   Mostly Cloudy
3:03 AM 26.6 °F 21.2 °F 19.4 °F 74% 30.04 in 10.0 mi NW 4.6 mph - N/A   Mostly Cloudy
3:53 AM 27.0 °F 23.0 °F 19.9 °F 75% 30.06 in 10.0 mi NNW 3.5 mph - N/A   Overcast
4:53 AM 28.0 °F 22.8 °F 21.0 °F 75% 30.07 in 10.0 mi NW 4.6 mph - N/A   Overcast
5:53 AM 28.9 °F 22.8 °F 21.0 °F 72% 30.08 in 10.0 mi NNW 5.8 mph - N/A   Overcast
6:53 AM 28.9 °F 22.8 °F 21.9 °F 75% 30.08 in 10.0 mi NNE 5.8 mph - N/A   Overcast
7:53 AM 28.9 °F 25.2 °F 21.9 °F 75% 30.10 in 10.0 mi North 3.5 mph - N/A   Overcast
8:53 AM 30.0 °F - 21.9 °F 72% 30.12 in 10.0 mi Calm Calm - N/A   Overcast
9:53 AM 30.0 °F 26.5 °F 21.9 °F 72% 30.12 in 10.0 mi North 3.5 mph - N/A   Overcast
10:53 AM 30.0 °F - 21.0 °F 69% 30.13 in 10.0 mi Calm Calm - N/A   Overcast
11:53 AM 30.9 °F 25.2 °F 21.9 °F 69% 30.16 in 10.0 mi NW 5.8 mph - N/A   Overcast
12:53 PM 32.0 °F 27.5 °F 21.9 °F 66% 30.16 in 10.0 mi North 4.6 mph - N/A   Overcast
1:53 PM 33.1 °F 27.7 °F 21.9 °F 64% 30.14 in 10.0 mi NE 5.8 mph - N/A   Overcast
2:53 PM 33.1 °F - 21.9 °F 64% 30.14 in 10.0 mi Calm Calm - N/A   Overcast
3:53 PM 35.1 °F 29.3 °F 23.0 °F 61% 30.11 in 10.0 mi NE 6.9 mph - N/A   Overcast
4:40 PM 35.6 °F 31.7 °F 21.2 °F 56% 30.08 in 10.0 mi WNW 4.6 mph - N/A   Mostly Cloudy
4:53 PM 36.0 °F - 21.9 °F 57% 30.12 in 10.0 mi Calm Calm - N/A   Mostly Cloudy
5:53 PM 36.0 °F 33.3 °F 21.9 °F 57% 30.10 in 10.0 mi NNE 3.5 mph - N/A   Mostly Cloudy
6:53 PM 35.1 °F 30.1 °F 21.9 °F 59% 30.10 in 10.0 mi SSE 5.8 mph - N/A   Mostly Cloudy
7:53 PM 34.0 °F - 23.0 °F 64% 30.09 in 10.0 mi Calm Calm - N/A   Mostly Cloudy
8:53 PM 30.0 °F 25.2 °F 21.9 °F 72% 30.09 in 10.0 mi East 4.6 mph - N/A   Scattered Clouds
9:53 PM 30.0 °F 25.2 °F 21.0 °F 69% 30.10 in 10.0 mi SE 4.6 mph - N/A   Partly Cloudy
10:53 PM 27.0 °F 21.6 °F 19.9 °F 75% 30.10 in 10.0 mi SSE 4.6 mph - N/A   Clear
11:53 PM 25.0 °F 20.7 °F 19.9 °F 81% 30.08 in 10.0 mi NE 3.5 mph - N/A   Clear